This is the latest recevied weather packets stored in our database for station/object KA3BQE-13. If no packets are shown the sender has not sent any weather packets the latest 1 day(s).
| Time | Temp. | Humidity | Pressure | Rain* | Wind** | Luminosity | Snow |
|---|---|---|---|---|---|---|---|
| 1778031579 | 8.89° C | 90% | 1011.5 hPa | 0 mm | 0 m/s | 0 W/m² | - |
| 1778031277 | 8.89° C | 90% | 1011.4 hPa | 0 mm | 0 m/s | 0 W/m² | - |
| 1778030973 | 8.89° C | 90% | 1011.3 hPa | 0 mm | 0 m/s | 0 W/m² | - |
| 1778030669 | 8.89° C | 89% | 1011.3 hPa | 0 mm | 0 m/s | 0 W/m² | - |
| 1778030367 | 8.89° C | 87% | 1011.3 hPa | 0 mm | 0 m/s | 0 W/m² | - |
| 1778030064 | 8.89° C | 86% | 1010.9 hPa | 0 mm | 0 m/s | 0 W/m² | - |
| 1778029760 | 8.89° C | 86% | 1010.8 hPa | 0 mm | 0 m/s | 0 W/m² | - |
| 1778029460 | 9.44° C | 85% | 1011.1 hPa | 0 mm | 0 m/s | 0 W/m² | - |
| 1778029155 | 9.44° C | 85% | 1011 hPa | 0 mm | 0 m/s | 1 W/m² | - |
| 1778028854 | 9.44° C | 80% | 1010.8 hPa | 0 mm | 0 m/s | 1 W/m² | - |
| 1778028548 | 9.44° C | 75% | 1010.9 hPa | 0 mm | 0 m/s | 2 W/m² | - |
| 1778028247 | 9.44° C | 73% | 1010.6 hPa | 0 mm | 0 m/s | 3 W/m² | - |
| 1778027942 | 9.44° C | 77% | 1010.6 hPa | 0 mm | 0 m/s | 4 W/m² | - |
| 1778027638 | 9.44° C | 79% | 1010.7 hPa | 0 mm | 0 m/s | 5 W/m² | - |
| 1778027335 | 9.44° C | 80% | 1010.8 hPa | 0 mm | 0 m/s | 6 W/m² | - |
| 1778027031 | 10° C | 80% | 1010.4 hPa | 0 mm | 0.45 m/s, 18° | 7 W/m² | - |
| 1778026727 | 10° C | 81% | 1010.4 hPa | 0 mm | 0 m/s | 10 W/m² | - |
| 1778026424 | 9.44° C | 85% | 1010.5 hPa | 0 mm | 0 m/s | 12 W/m² | - |
| 1778026133 | 10° C | 86% | 1010.7 hPa | 0 mm | 0.45 m/s, 19° | 13 W/m² | - |
| 1778025819 | 10° C | 85% | 1010.5 hPa | 0 mm | 0 m/s | 21 W/m² | - |
| 1778025515 | 10° C | 85% | 1010.7 hPa | 0 mm | 0 m/s | 21 W/m² | - |
| 1778025213 | 10° C | 83% | 1010.6 hPa | 0 mm | 0.45 m/s, 358° | 27 W/m² | - |
| 1778024910 | 10° C | 81% | 1010.7 hPa | 0 mm | 0 m/s | 28 W/m² | - |
| 1778024608 | 10.56° C | 80% | 1010.9 hPa | 0 mm | 0 m/s | 33 W/m² | - |
| 1778024316 | 10.56° C | 77% | 1010.9 hPa | 0 mm | 0 m/s | 30 W/m² | - |
* Rain latest hour (hover to see other rain measurements)
** Current wind speed in m/s (hover to see current wind gust speed)